User: anonymous   Login
Location: Peebles
(55.6412°N, 3.1714°W)
Time: 00:12:53
(UTC+00:00)
Language:

Cosmos 1943 Rocket - Orbit

View from above orbital plane
View from above orbital plane
View from above satellite
View from above satellite

Ground track
Ground track

The orbit data is extracted from the following two-line orbital elements,

1 19120U 88039B   21331.45244463 -.00000159  00000-0 -52548-4 0  9998
2 19120  71.0129 132.8220 0023450 222.1155 137.8168 14.19228803736564
Epoch (UTC): 27 November 2021 10:51:31
Eccentricity: 0.0023450
inclination: 71.0129°
perigee height: 811 km
apogee height: 845 km
right ascension of ascending node: 132.8220°
argument of perigee: 222.1155°
revolutions per day: 14.19228803
mean anomaly at epoch: 137.8168°
orbit number at epoch: 73656

The dashed part of the orbit path shows where the satellite is in the earth's shadow,  

DLR